Other Public Products
Issued by NWS Charleston, SC

Current Version | Previous Version | Graphics & Text | Print | Product List | Glossary On
Versions: 1 2 3 4 5 6 7 8 9 10 11 12 13 14 15 16 17 18 19 20 21 22 23 24 25 26 27 28 29 30 31 32 33 34 35 36 37 38 39 40 41 42 43 44 45 46 47 48 49 50
091
FPUS82 KCHS 172212
OPUCHS

TEST...KCHS/KSAV Gateway Observations...TEST
National Weather Service Charleston SC
500 PM EST FRI NOV 17 2017

NOTE: "fair" indicates few or no clouds below 12,000 feet with no
significant weather and/or obstructions to visibility.

SCZ050-WAZ558-NCZ071-TXZ119-213-PAZ071-DCZ001-FLZ074-172-MI076-
NYZ176-178-MAZ016-IL014-TNZ027-NJZ106-GAZ044-MD014-172300-

...Gateway Observations for Charleston International...

CITY           SKY/WX    TMP DP  RH WIND       PRES   REMARKS
Chas Airport   CLEAR     58  46  64 SE9       30.15R
Seattle        PTSUNNY   48  38  68 SW15G23   30.15R
Charlotte      PTCLDY    60  29  30 CALM      30.13S
Dallas DFW     PTSUNNY   84  65  52 S21       29.74F
Dallas Love    PTSUNNY   82  64  54 S16G24    29.76F
Philladelphia  PTCLDY    49  21  33 NW10      30.13R
Wash National  PTCLDY    50  26  39 W7        30.16S
Baltimore      PTCLDY    48  26  42 N3        30.14S
Miami          MOCLDY    77  62  59 NE12      30.00R
Detroit        CLOUDY    41  32  70 SE9       29.99F
Newark         PTCLDY    46  14  27 NW16      30.08S
Laguardia      PTCLDY    47  18  31 NW18      30.06S
J F K          PTCLDY    46  16  30 NW15G22   30.08R
Boston Logan   CLEAR     40  19  43 W14       29.95R WCI  32
Ft. Lauderdale PTCLDY    75  63  66 NE12G20   29.99R
Chicago O`Hare CLOUDY    42  36  79 S17       29.75F
Chicago Midway CLOUDY    44  37  76 SE14G21   29.77F
Houston Bush   PTSUNNY   84  64  50 S10G18    29.91S
Houston Hobby  MOSUNNY   82  66  58 S15G24    29.92S
Nashville      PTCLDY    64  32  30 S10       29.98F
Atlanta        PTCLDY    64  42  44 SE8       30.09S

$$

GAZ044-118-TXZ119-213-NCZ071-DCZ001-MDZ014-506-PAZ021-071-NJZ106-
NYZ176-178-MAZ106-OHZ011-021-055-MIZ076-KYZ091-ILZ014-INZ047-
MNZ060-ONZ431-172300-

...Gateway Observations for Savannah International...

CITY           SKY/WX    TMP DP  RH WIND       PRES   REMARKS
Savannah Arpt  PTCLDY    62  46  55 E10       30.13S
Atlanta        PTCLDY    64  42  44 SE8       30.09S
Charlotte      PTCLDY    60  29  30 CALM      30.13S
Dallas DFW     PTSUNNY   84  65  52 S21       29.74F
Houston Bush   PTSUNNY   84  64  50 S10G18    29.91S
Wash National  PTCLDY    50  26  39 W7        30.16S
Wash Dulles    PTCLDY    47  29  49 W6        30.15S
Baltimore      PTCLDY    48  26  42 N3        30.14S
Philadelphia   PTCLDY    49  21  33 NW10      30.13R
Newark         PTCLDY    46  14  27 NW16      30.08S
Laguardia      PTCLDY    47  18  31 NW18      30.06S
J F K          PTCLDY    46  16  30 NW15G22   30.08R
Boston         CLEAR     40  19  43 W14       29.95R WCI  32
Pittsburg      MOCLDY    42  28  57 SE7       30.09F
Akron          CLOUDY    42  28  57 S13       30.04F
Cleveland      CLOUDY    44  29  55 S9        30.05F
Cincinnati     MOCLDY    47  35  63 SE10      29.98F
Columbus       CLOUDY    46  32  58 SE7       30.03F
Detroit        CLOUDY    41  32  70 SE9       29.99F
Chicago O`Hare CLOUDY    42  36  79 S17       29.75F
Minneapolis    DRIZZLE   38  38 100 SE6       29.61F FOG     WCI  33
Indianapolis   CLOUDY    47  33  58 SE8       29.92F
Toronto Canada MOCLDY    34  25  69 S9        30.09F WCI  26

$$




USA.gov is the U.S. government's official web portal to all federal, state and local government web resources and services.